Flag for Sweden Weather past 2 weeks in Gävle, Sweden

Now
36 °F

Rain. Cloudy.


Feels Like: 36 °F
Forecast: 36 / 41 °F
Wind: 2 mph from Southeast

Location: Films Kyrkby

Current Time: Oct 22, 2014 at 3:21:20 PM

Latest Report: Oct 22, 2014 at 2:00 PM


Visibility: 4 mi

Pressure: 30.14 "Hg

Humidity: 94%

Dew point: 35 °F

Location of GävleLocation

Historic Weather in Gävle — Graph

°F

Gävle temperature yesterday

Maximum temperature yesterday: 43 °F (at 11:00 AM)
Minimum temperature yesterday: 40 °F (at 5:00 PM)
Average temperature yesterday: 41 °F

Past Weeks' High & Low Weather Summary

 TemperatureHumidityPressure
High58 °F (Oct 19, 3:00 PM)99% (Oct 12, 4:00 AM)30.24 "Hg (Oct 12, 4:00 AM)
Low32 °F (Oct 12, 6:00 AM)67% (Oct 17, 3:00 PM)29.29 "Hg (Oct 20, 7:00 AM)
Average45 °F93%29.84 "Hg
* Reported Oct 7 1:00 PM — Oct 22 1:00 PM, Gävle, Weather by CustomWeather, © 2014

Note: Actual official high and low records may vary slightly from our data, if they occured in-between our weather recording intervals... More about our weather records

Advertising

Gävle weather history for previous 24 hours

 ConditionsComfort  
Time TempWeatherWind HumidityBarometerVisibility
1:00 PM
Oct 22
37 °FLight rain. Cloudy.3 mph94%30.11 "Hg6 mi
12:00 PM37 °FRain showers. Cloudy.1 mph95%30.09 "Hg5 mi
11:00 AM36 °FRain showers. Cloudy.2 mph95%30.07 "Hg6 mi
10:00 AM36 °FRain showers. Cloudy.2 mph95%30.05 "Hg7 mi
9:00 AM36 °FLight rain. Cloudy.5 mph93%30.02 "Hg5 mi
8:00 AM36 °FRain showers. Cloudy.2 mph95%30.00 "Hg6 mi
7:00 AM36 °FLots of rain. Overcast.2 mph94%29.97 "Hg4 mi
6:00 AM37 °FChilly.2 mph93%29.95 "Hg25 mi
5:00 AM37 °FRain showers. Overcast.6 mph87%29.92 "Hg15 mi
4:00 AM39 °FChilly.3 mph75%29.90 "Hg31 mi
3:00 AM40 °FChilly.3 mph83%29.88 "Hg31 mi
2:00 AM40 °FChilly.3 mph87%29.86 "Hg31 mi
1:00 AM40 °FChilly.3 mph88%29.83 "Hg31 mi
12:00 AM40 °FQuite cool.3 mph89%29.82 "Hg31 mi
11:00 PM
Oct 21
41 °FQuite cool.3 mph92%29.80 "Hg31 mi
10:00 PM41 °FQuite cool.5 mph93%29.78 "Hg28 mi
9:00 PM41 °FQuite cool.3 mph94%29.77 "Hg16 mi
8:00 PM41 °FLight rain. Overcast.3 mph96%29.77 "Hg3 mi
7:00 PM41 °FQuite cool.3 mph97%29.76 "Hg2 mi
6:00 PM40 °FLight rain. Overcast.2 mph97%29.75 "Hg1 mi
5:00 PM40 °FLight rain. Cloudy.3 mph97%29.74 "Hg1 mi
4:00 PM41 °FFog.3 mph95%29.73 "Hg2 mi
3:00 PM41 °FQuite cool.2 mph96%29.74 "Hg2 mi
Weather by CustomWeather, © 2014

See weather overviewHow to use our weather pages